Location: Unspecified
(0.0000°N, 0.0000°E)
Time: 18:11:18
(UTC+00:00)

Vanguard 3 - Pass Details

Date: 02 February 2023
Orbit: 509 x 3249 km, 33.3° (Epoch: 20 March)

Event Time Altitude Azimuth Distance (km) Brightness Sun altitude
Rises 02:17:10 0° 310° (NW) 7,056 - -55.2°
Reaches altitude 10° 02:21:49 10° 312° (NW) 6,143 - -54.2°
Maximum altitude 02:41:55 74° 36° (NE) 3,032 - -49.8°
Exits shadow 02:42:51 73° 57° (ENE) 3,006 9.7 -49.6°
Drops below altitude 10° 02:56:36 10° 119° (ESE) 4,703 11.6 -46.5°
Sets 02:59:37 0° 120° (ESE) 5,402 12.1 -45.8°
